[[{"header":{"parameterUnit":"m.s-1","parameterCategory":1,"la1":30.2991,"la2":30.254,"lo1":-89.0895,"lo2":-89.0444,"dy":0.0017,"dx":0.0017,"nx":28,"ny":28,"refTime":"2023-11-20T03:00:00:Z","depth":0,"parameterNumber":2,"parameterNumberName":"U-component_of_WINDS"},"data":[0,0,0,0,0,0,0,0,0,0,0,0,0,0,0,0,0,0,0,0,0,0,0,0,0,0,0,0,0,0,0,0,0,0,0,0,0,0,0,0,0,0,0,0,0,0,0,0,0,0,0,0,0,0,0,0,0,0,-5.0441,-5.0442,0,-5.0575,-5.0576,-5.0578,-5.0618,-5.0617,-5.0616,-5.0616,-5.0749,-5.0753,-5.0757,0,0,0,0,0,0,0,0,0,0,0,0,0,-5.0217,-5.0221,-5.0441,-5.0443,-5.0444,-5.0574,-5.0576,-5.0578,-5.0618,-5.0617,-5.0616,-5.0616,-5.0747,-5.0752,-5.0757,0,0,0,0,0,0,0,0,0,0,0,0,0,-5.0328,-5.0222,-5.0441,-5.048,-5.0485,-5.0574,-5.0576,-5.0579,-5.0618,-5.0617,-5.0616,-5.0615,-5.0746,-5.0752,-5.0758,-5.0816,0,0,-5.0777,-5.078,0,0,0,0,0,0,0,0,-5.0322,-5.0337,-5.0472,-5.0477,-5.0483,-5.0579,-5.0546,-5.0658,-5.0618,-5.0567,-5.0616,-5.0615,-5.0693,-5.0703,-5.073,-5.0823,-5.0828,-5.0777,-5.0781,-5.0784,-5.0786,0,0,0,0,0,0,0,-5.0314,-5.0331,-5.0494,-5.0474,-5.0481,-5.049,-5.0505,-5.0567,-5.0634,-5.0572,-5.0575,-5.059,-5.0695,-5.0724,-5.0734,-5.083,-5.0777,-5.0783,-5.0787,-5.0789,-5.0977,-5.0978,0,0,0,0,0,0,-5.03,-5.0324,-5.0489,-5.0498,-5.0399,-5.0495,-5.0511,-5.0549,-5.0633,-5.0645,-5.0591,-5.0592,-5.0714,-5.0726,-5.0738,-5.0812,-5.0784,-5.079,-5.0793,-5.0976,-5.0978,-5.0979,0,0,0,0,0,0,-5.0295,-5.0315,-5.0484,-5.0412,-5.0434,-5.05,-5.0542,-5.0552,-5.0581,-5.0648,-5.066,-5.0609,-5.0714,-5.073,-5.0797,-5.0817,-5.0793,-5.0798,-5.0975,-5.0976,-5.0978,-5.096,0,0,0,0,0,0,-5.0289,-5.0313,-5.0336,-5.0412,-5.0438,-5.0541,-5.0543,-5.0555,-5.0592,-5.0594,-5.0668,-5.0679,-5.0714,-5.0787,-5.0803,-5.0825,-5.0803,-5.0973,-5.0975,-5.0978,-5.0959,-5.0961,-5.0963,0,0,0,0,0,-5.0281,-5.0325,-5.0337,-5.0357,-5.0469,-5.0542,-5.0557,-5.0598,-5.0594,-5.0617,-5.0661,-5.0676,-5.0813,-5.0794,-5.0812,-5.0836,-5.0972,-5.0975,-5.0977,-5.0958,-5.0961,-5.0963,0,0,0,0,0,0,-5.0248,-5.0336,-5.035,-5.0421,-5.0474,-5.0549,-5.058,-5.0599,-5.0654,-5.0653,-5.0701,-5.0717,-5.078,-5.0816,-5.0793,-5.0898,-5.0893,-5.0899,-5.0872,-5.0875,-5.0877,-5.0866,-5.0808,0,0,0,0,0,-5.0249,-5.0303,-5.0376,-5.0431,-5.0457,-5.0514,-5.0547,-5.0575,-5.0631,-5.0653,-5.0701,-5.0754,-5.0809,-5.0844,-5.0899,-5.0965,-5.0981,-5.0991,-5.0993,-5.0994,-5.0998,-5.1035,-5.104,-5.0988,-5.0988,-5.0988,0,0,-5.0252,-5.0306,-5.0337,-5.0426,-5.047,-5.0523,-5.0532,-5.0588,-5.0627,-5.0661,-5.0728,-5.0765,-5.0828,-5.0894,-5.0926,-5.0926,-5.1017,-5.0997,-5.0998,-5.1002,-5.1039,-5.1043,-5.1048,-5.099,-5.099,-5.0989,0,0,-5.0283,-5.033,-5.0381,-5.0426,-5.0494,-5.0532,-5.0544,-5.0617,-5.0643,-5.0711,-5.0737,-5.0785,-5.0879,-5.0922,-5.0956,-5.1005,-5.1021,-5.1022,-5.103,-5.1066,-5.107,-5.1074,-5.109,-5.1096,-5.1026,-5.1026,-5.1026,0,-5.0277,-5.0359,-5.0404,-5.0459,-5.0497,-5.0532,-5.0583,-5.0624,-5.0706,-5.073,-5.0729,-5.0848,-5.0893,-5.097,-5.0982,-5.1009,-5.1024,-5.1012,-5.1066,-5.107,-5.1075,-5.1091,-5.1097,-5.1026,-5.1026,-5.1026,-5.1026,0,-5.0348,-5.0404,-5.0437,-5.0516,-5.0558,-5.0611,-5.0663,-5.07,-5.0724,-5.0762,-5.083,-5.0885,-5.0951,-5.0972,-5.0995,-5.1053,-5.105,-5.1057,-5.1053,-5.1078,-5.1094,-5.1101,-5.1025,-5.1025,-5.1025,-5.1026,0,0,-5.036,-5.0465,-5.0476,-5.0513,-5.0591,-5.0635,-5.0689,-5.0755,-5.0785,-5.084,-5.0886,-5.0965,-5.0972,-5.1011,-5.104,-5.1072,-5.1106,-5.1075,-5.1077,-5.1077,-5.1171,-5.1164,-5.1171,-5.1118,-5.112,-5.1121,-5.1166,0,-5.04,-5.0499,-5.0542,-5.0621,-5.0673,-5.0708,-5.0755,-5.0807,-5.0844,-5.0893,-5.0934,-5.0989,-5.0995,-5.1018,-5.1051,-5.1095,-5.1125,-5.1092,-5.1159,-5.1161,-5.1141,-5.1179,-5.1172,-5.1212,-5.1172,-5.1173,-5.1174,0,-5.046,-5.0517,-5.0601,-5.0673,-5.0697,-5.0738,-5.0802,-5.0849,-5.0909,-5.0934,-5.0978,-5.1006,-5.1063,-5.1057,-5.1135,-5.1112,-5.1142,-5.1168,-5.117,-5.1177,-5.1168,-5.1185,-5.1226,-5.1231,-5.1185,-5.1184,-5.1183,0,-5.0459,-5.0557,-5.062,-5.065,-5.0736,-5.0764,-5.0801,-5.086,-5.0897,-5.0953,-5.0978,-5.1039,-5.1072,-5.1118,-5.1162,-5.1153,-5.1236,-5.1233,-5.1257,-5.1255,-5.1271,-5.1269,-5.1315,-5.1293,-5.1293,-5.1293,-5.1293,0,-5.0498,-5.0548,-5.0621,-5.0659,-5.0716,-5.0765,-5.0819,-5.0858,-5.0911,-5.0957,-5.0991,-5.1033,-5.1089,-5.1138,-5.1172,-5.1232,-5.1247,-5.1267,-5.1275,-5.1263,-5.1261,-5.1282,-5.128,-5.1294,-5.1294,-5.1294,-5.1293,0,-5.0506,-5.0557,-5.0627,-5.0704,-5.0724,-5.0762,-5.0827,-5.0865,-5.0905,-5.0962,-5.0979,-5.104,-5.11,-5.1148,-5.1226,-5.1249,-5.1311,-5.1321,-5.129,-5.1294,-5.1315,-5.1311,-5.1375,-5.1385,-5.1357,-5.1358,-5.1358,0,-5.0526,-5.0566,-5.0647,-5.0681,-5.0717,-5.0772,-5.081,-5.086,-5.0898,-5.097,-5.0999,-5.1062,-5.1114,-5.1208,-5.1259,-5.1318,-5.1329,-5.1348,-5.1338,-5.1325,-5.1328,-5.1324,-5.1328,-5.1347,-5.1348,-5.1348,-5.1348,0,-5.0557,-5.0581,-5.0636,-5.0699,-5.0744,-5.0796,-5.0849,-5.0875,-5.0934,-5.0976,-5.1038,-5.1079,-5.1159,-5.122,-5.1285,-5.1322,-5.1345,-5.1351,-5.1359,-5.1346,-5.1326,-5.1336,-5.1291,-5.1348,-5.1348,-5.1348,-5.1348,-5.1348,-5.0572,-5.0608,-5.0671,-5.073,-5.0776,-5.0825,-5.0864,-5.0909,-5.0962,-5.1032,-5.1059,-5.1122,-5.1181,-5.1272,-5.1309,-5.1359,-5.1361,-5.1373,-5.1376,-5.1378,-5.1376,-5.132,-5.1371,-5.1371,-5.1371,-5.1371,-5.1371,0,-5.0603,-5.0646,-5.07,-5.0774,-5.082,-5.0839,-5.0899,-5.0936,-5.0992,-5.1046,-5.1098,-5.1169,-5.1229,-5.1285,-5.1348,-5.1377,-5.1388,-5.1391,-5.1389,-5.1397,-5.1371,-5.1357,-5.1381,-5.1381,-5.1381,-5.1381,-5.1381,-5.1381,-5.0625,-5.0688,-5.0719,-5.0804,-5.0846,-5.0909,-5.0941,-5.0986,-5.103,-5.1108,-5.1159,-5.1196,-5.125,-5.1317,-5.1373,-5.1388,-5.1408,-5.1408,-5.1426,-5.14,-5.1398,-5.1397,-5.1384,-5.1413,-5.1413,-5.1447,-5.1447,-5.1448]},{"header":{"parameterUnit":"m.s-1","parameterCategory":1,"la1":30.2991,"la2":30.254,"lo1":-89.0895,"lo2":-89.0444,"dy":0.0017,"dx":0.0017,"nx":28,"ny":28,"refTime":"2023-11-20T03:00:00:Z","depth":0,"parameterNumber":3,"parameterNumberName":"V-component_of_WINDS"},"data":[0,0,0,0,0,0,0,0,0,0,0,0,0,0,0,0,0,0,0,0,0,0,0,0,0,0,0,0,0,0,0,0,0,0,0,0,0,0,0,0,0,0,0,0,0,0,0,0,0,0,0,0,0,0,0,0,0,0,5.8461,5.8462,0,5.8573,5.8575,5.8576,5.8568,5.8566,5.8564,5.8563,5.8672,5.8676,5.8681,0,0,0,0,0,0,0,0,0,0,0,0,0,5.8234,5.8239,5.8461,5.8462,5.8463,5.8573,5.8575,5.8576,5.8568,5.8566,5.8564,5.8562,5.8671,5.8676,5.8681,0,0,0,0,0,0,0,0,0,0,0,0,0,5.8338,5.824,5.846,5.8473,5.8475,5.8573,5.8575,5.8577,5.8569,5.8566,5.8564,5.8561,5.8669,5.8675,5.8682,5.8773,0,0,5.8702,5.8705,0,0,0,0,0,0,0,0,5.8332,5.8347,5.847,5.8472,5.8475,5.8554,5.8535,5.8642,5.8569,5.8533,5.8563,5.856,5.8634,5.8644,5.867,5.8778,5.8783,5.8703,5.8707,5.871,5.8712,0,0,0,0,0,0,0,5.8325,5.8342,5.8505,5.8471,5.8475,5.8471,5.8483,5.8555,5.8596,5.8536,5.8536,5.8549,5.8635,5.8664,5.8673,5.8784,5.8703,5.8709,5.8713,5.8715,5.8975,5.8978,0,0,0,0,0,0,5.8316,5.8336,5.8501,5.8508,5.8396,5.8477,5.8491,5.8531,5.8595,5.8603,5.8551,5.8548,5.8654,5.8665,5.8676,5.879,5.871,5.8716,5.872,5.8972,5.8976,5.8979,0,0,0,0,0,0,5.8311,5.8331,5.8497,5.8422,5.8443,5.8484,5.8529,5.8535,5.8563,5.8607,5.8614,5.8573,5.8652,5.8667,5.875,5.8793,5.8719,5.8725,5.8969,5.8973,5.8977,5.9015,0,0,0,0,0,0,5.8305,5.8329,5.8365,5.8423,5.8447,5.857,5.8532,5.8539,5.8575,5.8573,5.8629,5.8636,5.8651,5.874,5.8757,5.8801,5.873,5.8965,5.8971,5.8976,5.901,5.902,5.9028,0,0,0,0,0,5.8297,5.8369,5.8367,5.8387,5.8493,5.8572,5.8586,5.8604,5.8579,5.8615,5.8643,5.8634,5.8785,5.8749,5.8767,5.8814,5.8962,5.8969,5.8975,5.9006,5.9018,5.9028,0,0,0,0,0,0,5.8312,5.8377,5.8375,5.8468,5.8515,5.8571,5.8617,5.8615,5.8668,5.8664,5.8681,5.8694,5.8778,5.8804,5.8762,5.8907,5.887,5.8881,5.8887,5.8899,5.8908,5.8901,5.8736,0,0,0,0,0,5.8326,5.8387,5.844,5.8517,5.8541,5.8575,5.861,5.862,5.8668,5.8688,5.8722,5.8768,5.8826,5.8864,5.8919,5.9013,5.9026,5.9055,5.9064,5.9071,5.908,5.9135,5.9149,5.9,5.9,5.9,0,0,5.8356,5.8399,5.8436,5.8522,5.8559,5.8621,5.8592,5.8657,5.8703,5.8697,5.8779,5.8806,5.8858,5.8948,5.8989,5.8972,5.9125,5.908,5.9085,5.909,5.9143,5.9157,5.9169,5.9004,5.9004,5.9003,0,0,5.8444,5.8482,5.8552,5.8591,5.8649,5.8672,5.8689,5.8746,5.8764,5.8847,5.8844,5.8898,5.8997,5.9036,5.9068,5.9173,5.9167,5.919,5.9239,5.9291,5.9303,5.9314,5.9353,5.9367,5.9199,5.9199,5.9199,0,5.8473,5.8568,5.8587,5.8656,5.8694,5.8694,5.8765,5.8801,5.8873,5.8899,5.8879,5.9006,5.9041,5.9141,5.9167,5.9193,5.9213,5.9184,5.93,5.9311,5.9321,5.9359,5.9373,5.9201,5.9201,5.9201,5.92,0,5.8603,5.8669,5.8718,5.8792,5.8835,5.8904,5.8934,5.8975,5.8981,5.9006,5.9091,5.9133,5.9199,5.9223,5.9228,5.9325,5.9313,5.9296,5.9261,5.9337,5.9374,5.9388,5.9205,5.9204,5.9203,5.9203,0,0,5.8702,5.8788,5.8806,5.8841,5.8906,5.8957,5.9026,5.9093,5.9129,5.9179,5.9238,5.9323,5.931,5.9346,5.9356,5.9402,5.9486,5.938,5.9382,5.94,5.9597,5.9611,5.9627,5.9482,5.9485,5.9487,5.9594,0,5.8797,5.8923,5.8944,5.9053,5.9116,5.9117,5.9178,5.9224,5.9249,5.9304,5.933,5.9392,5.9368,5.9391,5.9436,5.9466,5.9526,5.9458,5.9537,5.954,5.9527,5.9646,5.966,5.9758,5.9607,5.961,5.9611,0,5.8926,5.8983,5.91,5.916,5.9187,5.9241,5.9306,5.9358,5.9411,5.9426,5.9469,5.9474,5.9546,5.9506,5.9606,5.956,5.9593,5.9612,5.9617,5.9626,5.9582,5.966,5.979,5.9806,5.9633,5.9632,5.963,0,5.899,5.9095,5.918,5.9209,5.928,5.9319,5.935,5.9401,5.9441,5.9496,5.9522,5.9584,5.9618,5.9666,5.9688,5.9656,5.9787,5.9748,5.9802,5.9801,5.983,5.9828,5.9969,5.9848,5.9848,5.9848,5.9847,0,5.9095,5.9167,5.9211,5.9263,5.9344,5.9366,5.9445,5.9475,5.952,5.9578,5.9581,5.9635,5.966,5.9717,5.9734,5.9815,5.983,5.9844,5.9848,5.9845,5.9844,5.9869,5.9863,5.9851,5.9851,5.985,5.9849,0,5.9181,5.9212,5.9305,5.9366,5.9383,5.9441,5.9492,5.9543,5.9568,5.9641,5.9659,5.9699,5.9767,5.9793,5.9875,5.9886,5.9981,5.9978,5.9965,5.9966,6.0019,6.0015,6.0183,6.0207,6.0067,6.0069,6.007,0,5.9247,5.9304,5.9372,5.9412,5.9446,5.9509,5.9551,5.9575,5.9618,5.9684,5.9727,5.9796,5.9852,5.996,5.9995,6.0059,6.0059,6.0113,6.0068,6.0065,6.0063,6.0061,6.0067,6.0122,6.0124,6.0125,6.0126,0,5.9363,5.9377,5.9438,5.9506,5.9556,5.961,5.9662,5.9694,5.9726,5.9774,5.9846,5.989,5.9975,6.0044,6.011,6.014,6.0139,6.014,6.0156,6.0154,6.0146,6.0154,5.999,6.0136,6.0135,6.0134,6.0133,6.0133,5.9443,5.9494,5.9551,5.962,5.9662,5.9712,5.9764,5.9797,5.9857,5.9931,5.9941,6.0018,6.007,6.0159,6.0193,6.0253,6.0239,6.0261,6.0267,6.0273,6.0279,6.0134,6.0264,6.0264,6.0264,6.0264,6.0263,0,5.9561,5.9599,5.9662,5.9737,5.9791,5.9787,5.9845,5.989,5.9959,6.0009,6.0066,6.0149,6.0216,6.0257,6.0324,6.0365,6.0366,6.0382,6.038,6.0388,6.0286,6.0267,6.038,6.038,6.038,6.038,6.038,6.038,5.9629,5.9717,5.9738,5.9846,5.9883,5.9961,5.9995,6.004,6.0081,6.0175,6.0232,6.0259,6.0306,6.0377,6.0439,6.0449,6.0475,6.0492,6.0502,6.0406,6.0394,6.0383,6.0365,6.0497,6.0497,6.0599,6.06,6.06]}]]